Date String (YYYY-MM-DD hh:mm:ss) UTC,Instrument flags,absolute air pressure of the measurement (hPa),sample flow rate (lpm),inlet stack bypass flow (lpm),air temperature of the measurement (°C),ambient temperature measured by the external sensor (°C),aerosol sample conditioner tube jacket temperature (°C),OPC LED temperature (°C),internal box temperature (°C),relative humidity of the measurement (%),span deviation,mass concentration of particles derived from Lorenz-Mie calculation of OPC scattering (μg/m³),mass concentration of particles derived from Lorenz-Mie calculation of OPC scattering (μg/m³),mass concentration of particles derived from Lorenz-Mie calculation of OPC scattering (μg/m³)
DateTimeUTC,F1_M11,P_M11,Q1_M11,Q2_M11,T1_M11,T2_M11,T3_M11,T4_M11,T5_M11,U1_M11,ZSPAN_M11,X2_M11,X0_M11,X1_M11
2023-12-12 10:00:00,SystemResetWarning,0833.6,5.00,000.00,022.5,021.5,000.0,030.8,023.8,22.0,0000.0,0006.07,0008.08,0005.90
2023-12-12 10:01:00,SystemResetWarning,0833.6,5.00,000.00,022.5,021.5,000.0,030.8,023.8,22.0,0000.0,0006.08,0008.11,0005.90
2023-12-12 10:02:00,SystemResetWarning,0833.6,5.00,000.00,022.5,021.5,000.0,030.8,023.8,22.0,0000.0,0006.08,0008.16,0005.90
2023-12-12 10:03:00,SystemResetWarning,0833.6,5.00,000.00,022.5,021.5,000.0,030.8,023.8,22.0,0000.0,0006.08,0008.20,0005.89
2023-12-12 10:04:00,SystemResetWarning,0833.6,5.00,000.00,022.5,021.5,000.0,030.8,023.8,22.0,0000.0,0006.08,0008.21,0005.89
2023-12-12 10:05:00,SystemResetWarning,0833.5,5.00,000.00,022.5,021.5,000.0,030.8,023.8,22.0,0000.0,0006.10,0008.30,0005.88
2023-12-12 10:06:00,SystemResetWarning,0833.5,5.00,000.00,022.5,021.5,000.0,030.8,023.8,22.0,0000.0,0006.09,0008.32,0005.88
2023-12-12 10:07:00,SystemResetWarning,0833.4,5.00,000.00,022.5,021.5,000.0,030.8,023.8,22.0,0000.0,0006.08,0008.55,0005.88
2023-12-12 10:08:00,SystemResetWarning,0833.4,4.99,000.00,022.5,021.5,000.0,030.8,023.8,22.0,0000.0,0006.09,0008.56,0005.88
2023-12-12 10:09:00,SystemResetWarning,0833.5,4.99,000.00,022.5,021.5,000.0,030.8,023.8,22.0,0000.0,0006.09,0008.27,0005.88
2023-12-12 10:10:00,SystemResetWarning,0833.5,5.01,000.00,022.5,021.5,000.0,030.8,023.8,22.0,0000.0,0006.08,0008.25,0005.88
2023-12-12 10:11:00,SystemResetWarning,0833.5,5.00,000.00,022.5,021.5,000.0,030.8,023.8,22.0,0000.0,0006.08,0008.22,0005.88
2023-12-12 10:12:00,SystemResetWarning,0833.4,5.00,000.00,022.5,021.5,000.0,030.8,023.8,22.0,0000.0,0006.08,0008.19,0005.89
2023-12-12 10:13:00,SystemResetWarning,0833.4,5.00,000.00,022.4,021.5,000.0,030.8,023.8,22.0,0000.0,0006.08,0008.11,0005.90
2023-12-12 10:14:00,SystemResetWarning,0833.4,5.00,000.00,022.4,021.5,000.0,030.7,023.7,22.1,0000.0,0006.08,0008.06,0005.92
2023-12-12 10:15:00,SystemResetWarning,0833.4,5.01,000.00,022.4,021.5,000.0,030.7,023.7,22.1,0000.0,0006.09,0008.07,0005.93
2023-12-12 10:16:00,SystemResetWarning,0833.4,5.00,000.00,022.4,021.5,000.0,030.7,023.7,22.1,0000.0,0006.07,0007.99,0005.94
2023-12-12 10:17:00,SystemResetWarning,0833.4,5.00,000.00,022.4,021.5,000.0,030.7,023.7,22.1,0000.0,0006.06,0007.95,0005.93
2023-12-12 10:18:00,SystemResetWarning,0833.4,5.00,000.00,022.4,021.4,000.0,030.7,023.7,22.1,0000.0,0006.07,0007.68,0005.94
2023-12-12 10:19:00,SystemResetWarning,0833.4,5.00,000.00,022.4,021.5,000.0,030.7,023.7,22.1,0000.0,0006.07,0007.69,0005.95
2023-12-12 10:20:00,SystemResetWarning,0833.4,5.00,000.00,022.4,021.5,000.0,030.7,023.7,22.1,0000.0,0006.07,0007.67,0005.95
2023-12-12 10:21:00,SystemResetWarning,0833.4,4.99,000.00,022.4,021.5,000.0,030.7,023.7,22.1,0000.0,0006.05,0007.67,0005.93
2023-12-12 10:22:00,SystemResetWarning,0833.4,5.00,000.00,022.4,021.5,000.0,030.7,023.7,22.1,0000.0,0006.07,0007.73,0005.94
2023-12-12 10:23:00,SystemResetWarning,0833.4,5.00,000.00,022.4,021.5,000.0,030.7,023.7,22.1,0000.0,0006.06,0007.71,0005.94
2023-12-12 10:24:00,SystemResetWarning,0833.4,5.00,000.00,022.4,021.5,000.0,030.7,023.7,22.1,0000.0,0006.05,0007.72,0005.92
2023-12-12 10:25:00,SystemResetWarning,0833.4,4.99,000.00,022.4,021.5,000.0,030.7,023.7,22.1,0000.0,0006.04,0007.70,0005.91
2023-12-12 10:26:00,SystemResetWarning,0833.4,5.00,000.00,022.4,021.5,000.0,030.7,023.7,22.0,0000.0,0006.03,0007.66,0005.91
2023-12-12 10:27:00,SystemResetWarning,0833.4,5.00,000.00,022.4,021.5,000.0,030.7,023.7,22.0,0000.0,0006.03,0007.65,0005.91
2023-12-12 10:28:00,SystemResetWarning,0833.4,5.00,000.00,022.4,021.5,000.0,030.7,023.7,22.1,0000.0,0006.03,0007.65,0005.90
2023-12-12 10:29:00,SystemResetWarning,0833.4,5.00,000.00,022.4,021.5,000.0,030.7,023.7,22.1,0000.0,0006.03,0007.65,0005.90
2023-12-12 10:30:00,SystemResetWarning,0833.4,5.00,000.00,022.4,021.5,000.0,030.7,023.7,22.1,0000.0,0006.02,0007.70,0005.89
2023-12-12 10:31:00,SystemResetWarning,0833.4,5.00,000.00,022.4,021.5,000.0,030.7,023.7,22.1,0000.0,0006.03,0007.79,0005.90
2023-12-12 10:32:00,SystemResetWarning,0833.3,5.00,000.00,022.4,021.5,000.0,030.7,023.8,22.1,0000.0,0006.05,0007.81,0005.91
2023-12-12 10:33:00,SystemResetWarning,0833.3,5.00,000.00,022.4,021.5,000.0,030.7,023.7,22.1,0000.0,0006.03,0007.75,0005.92
2023-12-12 10:34:00,SystemResetWarning,0833.3,5.00,000.00,022.4,021.5,000.0,030.7,023.7,22.0,0000.0,0006.04,0007.86,0005.92
2023-12-12 10:35:00,SystemResetWarning,0833.3,5.00,000.00,022.4,021.5,000.0,030.7,023.7,22.1,0000.0,0006.06,0007.92,0005.92
2023-12-12 10:36:00,SystemResetWarning,0833.3,5.00,000.00,022.4,021.5,000.0,030.7,023.7,22.1,0000.0,0006.08,0007.94,0005.94
2023-12-12 10:37:00,SystemResetWarning,0833.3,5.00,000.00,022.4,021.4,000.0,030.7,023.7,22.1,0000.0,0006.09,0007.97,0005.95
2023-12-12 10:38:00,SystemResetWarning,0833.3,5.00,000.00,022.4,021.5,000.0,030.7,023.7,22.1,0000.0,0006.11,0008.00,0005.96
2023-12-12 10:39:00,SystemResetWarning,0833.3,4.99,000.00,022.4,021.5,000.0,030.7,023.7,22.1,0000.0,0006.11,0007.97,0005.98
2023-12-12 10:40:00,SystemResetWarning,0833.3,4.99,000.00,022.4,021.5,000.0,030.7,023.7,22.1,0000.0,0006.10,0007.95,0005.97
2023-12-12 10:41:00,SystemResetWarning,0833.3,5.01,000.00,022.4,021.5,000.0,030.7,023.7,22.1,0000.0,0006.09,0007.88,0005.97
2023-12-12 10:42:00,SystemResetWarning,0833.3,5.00,000.00,022.4,021.5,000.0,030.7,023.7,22.1,0000.0,0006.09,0007.81,0005.97
2023-12-12 10:43:00,SystemResetWarning,0833.2,5.01,000.00,022.4,021.5,000.0,030.7,023.7,22.0,0000.0,0006.10,0007.80,0005.98
2023-12-12 10:44:00,SystemResetWarning,0833.3,5.01,000.00,022.4,021.4,000.0,030.7,023.7,22.0,0000.0,0006.09,0007.78,0005.97
2023-12-12 10:45:00,SystemResetWarning,0833.3,5.00,000.00,022.4,021.4,000.0,030.7,023.7,22.0,0000.0,0006.10,0007.90,0005.98
2023-12-12 10:46:00,SystemResetWarning,0833.3,4.99,000.00,022.4,021.4,000.0,030.7,023.7,22.0,0000.0,0006.10,0008.12,0005.98
2023-12-12 10:47:00,SystemResetWarning,0833.3,4.99,000.00,022.4,021.4,000.0,030.7,023.7,22.0,0000.0,0006.11,0008.14,0005.97
2023-12-12 10:48:00,SystemResetWarning,0833.3,5.00,000.00,022.4,021.4,000.0,030.7,023.8,22.0,0000.0,0006.13,0008.20,0005.98
2023-12-12 10:49:00,SystemResetWarning,0833.3,5.00,000.00,022.4,021.4,000.0,030.7,023.7,22.0,0000.0,0006.12,0008.19,0005.97
2023-12-12 10:50:00,SystemResetWarning,0833.3,5.00,000.00,022.4,021.4,000.0,030.7,023.7,22.0,0000.0,0006.14,0008.21,0005.96
2023-12-12 10:51:00,SystemResetWarning,0833.3,5.00,000.00,022.4,021.4,000.0,030.7,023.7,22.0,0000.0,0006.15,0008.23,0005.96
2023-12-12 10:52:00,SystemResetWarning,0833.3,5.00,000.00,022.4,021.4,000.0,030.7,023.7,22.0,0000.0,0006.17,0008.28,0005.96
2023-12-12 10:53:00,SystemResetWarning,0833.3,5.00,000.00,022.4,021.4,000.0,030.7,023.7,22.0,0000.0,0006.18,0008.34,0005.97
2023-12-12 10:54:00,SystemResetWarning,0833.3,5.00,000.00,022.4,021.4,000.0,030.7,023.7,22.0,0000.0,0006.19,0008.36,0005.97
2023-12-12 10:55:00,SystemResetWarning,0833.3,5.00,000.00,022.4,021.4,000.0,030.7,023.7,22.0,0000.0,0006.20,0008.44,0005.97
2023-12-12 10:56:00,SystemResetWarning,0833.2,5.00,000.00,022.4,021.4,000.0,030.7,023.7,22.1,0000.0,0006.18,0008.33,0005.97
2023-12-12 10:57:00,SystemResetWarning,0833.2,5.00,000.00,022.4,021.4,000.0,030.7,023.7,22.1,0000.0,0006.18,0008.07,0005.97
2023-12-12 10:58:00,SystemResetWarning,0833.3,5.00,000.00,022.4,021.4,000.0,030.7,023.7,22.1,0000.0,0006.16,0008.00,0005.97
2023-12-12 10:59:00,SystemResetWarning,0833.3,5.00,000.00,022.4,021.4,000.0,030.7,023.7,22.1,0000.0,0006.15,0007.97,0005.97
